CAL7089 ZBAA-ZSQD

Flight info

Callsign CAL7089
Flight time 0h 58m
Altitude 18700
Route IGMOR2G IGMOR W36 LOTGO W575 GOTSU W201 HCH W651 NOKUD
Aircraft B738/M-SDE1E2E3FGHIM3RWY/LB1

Departure

Time 2026-05-04 08:02
Airport Beijing Capital International Airport (ZBAA)

Arrival

Time 2026-05-04 09:01
Airport Qingdao Jiaodong International Airport (ZSQD)
Time Latitude Longitude Altitude Speed Heading
2026-05-04 07:16 40.07629 116.60345 126 ft 0 kts 41°
2026-05-04 07:44 40.07627 116.60342 125 ft 2 kts 42°
2026-05-04 07:44 40.07616 116.60329 125 ft 2 kts 41°
2026-05-04 07:44 40.07605 116.60317 125 ft 2 kts 41°
2026-05-04 07:44 40.07594 116.60304 125 ft 2 kts 42°
2026-05-04 07:45 40.07582 116.60290 125 ft 2 kts 41°
2026-05-04 07:45 40.07575 116.60281 125 ft 2 kts 41°
2026-05-04 07:45 40.07561 116.60274 125 ft 2 kts
2026-05-04 07:45 40.07547 116.60274 125 ft 2 kts 341°
2026-05-04 07:46 40.07538 116.60280 125 ft 0 kts 324°
2026-05-04 07:46 40.07533 116.60286 125 ft 0 kts 321°
2026-05-04 07:49 40.07590 116.60204 125 ft 4 kts 298°
2026-05-04 07:49 40.07601 116.60175 125 ft 3 kts 296°
2026-05-04 07:49 40.07615 116.60136 125 ft 5 kts 292°
2026-05-04 07:50 40.07631 116.60079 125 ft 7 kts 282°
2026-05-04 07:50 40.07628 116.60003 125 ft 9 kts 264°
2026-05-04 07:50 40.07648 116.59927 125 ft 10 kts 327°
2026-05-04 07:50 40.07723 116.59910 125 ft 12 kts 354°
2026-05-04 07:51 40.07815 116.59897 125 ft 14 kts 352°
2026-05-04 07:51 40.07909 116.59881 125 ft 12 kts 354°
2026-05-04 07:51 40.07994 116.59868 125 ft 11 kts 354°
2026-05-04 07:51 40.08070 116.59856 125 ft 10 kts 353°
2026-05-04 07:52 40.08134 116.59845 125 ft 3 kts 353°
2026-05-04 07:52 40.08158 116.59843 125 ft 3 kts
2026-05-04 07:52 40.08192 116.59889 125 ft 8 kts 81°
2026-05-04 07:52 40.08199 116.59952 125 ft 4 kts 83°
2026-05-04 07:53 40.08203 116.59993 125 ft 5 kts 84°
2026-05-04 07:54 40.08252 116.60543 125 ft 13 kts 83°
2026-05-04 07:55 40.08264 116.60666 125 ft 14 kts 84°
2026-05-04 07:55 40.08274 116.60779 125 ft 10 kts 83°
2026-05-04 07:55 40.08281 116.60860 125 ft 8 kts 83°
2026-05-04 07:55 40.08289 116.60942 125 ft 9 kts 83°
2026-05-04 07:56 40.08297 116.61026 125 ft 9 kts 83°
2026-05-04 07:56 40.08308 116.61105 125 ft 7 kts 62°
2026-05-04 07:56 40.08343 116.61137 125 ft 8 kts
2026-05-04 07:56 40.08420 116.61130 125 ft 13 kts 353°
2026-05-04 07:57 40.08505 116.61116 125 ft 10 kts 353°
2026-05-04 07:57 40.08567 116.61106 125 ft 7 kts 354°
2026-05-04 07:57 40.08626 116.61098 125 ft 11 kts 354°
2026-05-04 07:57 40.08715 116.61084 125 ft 14 kts 353°
2026-05-04 07:58 40.08812 116.61068 125 ft 13 kts 353°
2026-05-04 07:58 40.08903 116.61053 125 ft 12 kts 353°
2026-05-04 07:58 40.08978 116.61042 125 ft 9 kts 354°
2026-05-04 07:58 40.09017 116.61070 125 ft 5 kts 70°
2026-05-04 07:59 40.09026 116.61097 125 ft 8 kts 75°
2026-05-04 07:59 40.09036 116.61183 125 ft 7 kts 83°
2026-05-04 07:59 40.09038 116.61235 125 ft 3 kts 105°
2026-05-04 07:59 40.09025 116.61259 125 ft 7 kts 139°
2026-05-04 08:00 40.08910 116.61298 125 ft 32 kts 172°
2026-05-04 08:00 40.08455 116.61376 125 ft 100 kts 175°
2026-05-04 08:00 40.07553 116.61535 165 ft 159 kts 171°
2026-05-04 08:02 40.00173 116.67078 2981 ft 207 kts 141°
2026-05-04 08:02 39.99075 116.68356 3109 ft 225 kts 141°
2026-05-04 08:02 39.98121 116.70029 3247 ft 241 kts 112°
2026-05-04 08:03 39.98027 116.72200 3518 ft 247 kts 83°
2026-05-04 08:03 39.98378 116.74450 3784 ft 257 kts 83°
2026-05-04 08:03 39.98671 116.76751 4033 ft 261 kts 84°
2026-05-04 08:03 39.98944 116.79158 4342 ft 275 kts 84°
2026-05-04 08:04 39.99235 116.81672 4638 ft 282 kts 84°
2026-05-04 08:04 39.99522 116.84186 4935 ft 282 kts 84°
2026-05-04 08:04 39.99806 116.86733 5234 ft 283 kts 84°
2026-05-04 08:04 40.00088 116.89267 5534 ft 284 kts 84°
2026-05-04 08:05 40.00378 116.91819 5832 ft 283 kts 84°
2026-05-04 08:05 40.00645 116.94390 6134 ft 290 kts 84°
2026-05-04 08:05 40.00927 116.96996 6433 ft 291 kts 83°
2026-05-04 08:05 40.01223 116.99599 6744 ft 291 kts 83°
2026-05-04 08:06 40.01513 117.02206 7196 ft 294 kts 83°
2026-05-04 08:06 40.01600 117.04908 7647 ft 306 kts 100°
2026-05-04 08:06 40.00821 117.07503 8097 ft 314 kts 129°
2026-05-04 08:06 39.99170 117.09304 8547 ft 314 kts 158°
2026-05-04 08:08 39.82970 117.11955 11740 ft 364 kts 174°
2026-05-04 08:08 39.80463 117.12348 12189 ft 367 kts 174°
2026-05-04 08:10 39.59455 117.15658 15705 ft 401 kts 176°
2026-05-04 08:11 39.56679 117.16095 16107 ft 403 kts 176°
2026-05-04 08:11 39.51031 117.16989 16910 ft 421 kts 175°
2026-05-04 08:11 39.48126 117.17822 17310 ft 429 kts 167°
2026-05-04 08:12 39.45363 117.19183 17703 ft 436 kts 158°
2026-05-04 08:12 39.42681 117.21087 18111 ft 442 kts 153°
2026-05-04 08:12 39.40028 117.23158 18504 ft 445 kts 153°
2026-05-04 08:12 39.37393 117.25200 18613 ft 450 kts 153°
2026-05-04 08:13 39.34691 117.27284 18714 ft 445 kts 153°
2026-05-04 08:13 39.32040 117.29332 18973 ft 446 kts 153°
2026-05-04 08:13 39.29391 117.31371 19224 ft 450 kts 153°
2026-05-04 08:13 39.26685 117.33450 19475 ft 453 kts 153°
2026-05-04 08:14 39.23999 117.35514 19723 ft 455 kts 153°
2026-05-04 08:14 39.21291 117.37594 19972 ft 457 kts 153°
2026-05-04 08:14 39.18557 117.39693 20223 ft 458 kts 153°
2026-05-04 08:16 39.03245 117.60799 20620 ft 488 kts 123°
2026-05-04 08:16 39.01444 117.64588 20611 ft 496 kts 123°
2026-05-04 08:16 38.99649 117.68371 20606 ft 493 kts 123°
2026-05-04 08:17 38.97882 117.72103 20605 ft 489 kts 122°
2026-05-04 08:17 38.96131 117.75796 20613 ft 488 kts 122°
2026-05-04 08:17 38.94359 117.79529 20612 ft 489 kts 122°
2026-05-04 08:17 38.92596 117.83238 20612 ft 488 kts 122°
2026-05-04 08:19 38.81998 118.10046 20618 ft 481 kts 99°
2026-05-04 08:19 38.81352 118.14223 20612 ft 481 kts 98°
2026-05-04 08:20 38.80696 118.18463 20611 ft 481 kts 98°
2026-05-04 08:20 38.80038 118.22629 20611 ft 480 kts 99°
2026-05-04 08:20 38.79369 118.26839 20611 ft 481 kts 99°
2026-05-04 08:20 38.78697 118.31059 20612 ft 481 kts 99°
2026-05-04 08:21 38.78027 118.35252 20612 ft 481 kts 99°
2026-05-04 08:21 38.77359 118.39423 20611 ft 481 kts 99°
2026-05-04 08:21 38.76687 118.43600 20612 ft 481 kts 99°
2026-05-04 08:21 38.76017 118.47759 20612 ft 481 kts 99°
2026-05-04 08:22 38.75336 118.51972 20611 ft 481 kts 99°
2026-05-04 08:22 38.74652 118.56189 20611 ft 481 kts 99°
2026-05-04 08:24 38.69870 118.85449 20612 ft 482 kts 99°
2026-05-04 08:24 38.69177 118.89652 20612 ft 482 kts 99°
2026-05-04 08:24 38.68487 118.93819 20612 ft 483 kts 100°
2026-05-04 08:24 38.67784 118.98055 20612 ft 484 kts 100°
2026-05-04 08:25 38.67086 119.02245 20612 ft 484 kts 100°
2026-05-04 08:25 38.66380 119.06474 20612 ft 485 kts 100°
2026-05-04 08:25 38.65684 119.10628 20612 ft 485 kts 100°
2026-05-04 08:25 38.64978 119.14833 20612 ft 484 kts 100°
2026-05-04 08:26 38.64268 119.19055 20611 ft 484 kts 100°
2026-05-04 08:27 38.59279 119.48473 20651 ft 483 kts 100°
2026-05-04 08:28 38.58651 119.52631 20658 ft 482 kts 96°
2026-05-04 08:28 38.58333 119.56906 20665 ft 480 kts 90°
2026-05-04 08:28 38.58208 119.61142 20667 ft 478 kts 89°
2026-05-04 08:28 38.58094 119.65352 20656 ft 462 kts 89°
2026-05-04 08:29 38.57979 119.69365 20665 ft 450 kts 89°
2026-05-04 08:29 38.57873 119.73330 20670 ft 452 kts 89°
2026-05-04 08:29 38.57768 119.77387 20669 ft 455 kts 89°
2026-05-04 08:31 38.55362 120.05408 20666 ft 458 kts 101°
2026-05-04 08:33 38.45383 120.29713 20649 ft 456 kts 153°
2026-05-04 08:33 38.42476 120.31290 20437 ft 452 kts 165°
2026-05-04 08:35 38.23638 120.35770 18858 ft 435 kts 169°
2026-05-04 08:35 38.20723 120.36687 18608 ft 433 kts 168°
2026-05-04 08:35 38.17811 120.37614 18357 ft 431 kts 168°
2026-05-04 08:35 38.14938 120.38537 18108 ft 429 kts 168°
2026-05-04 08:37 37.97929 120.44037 16609 ft 416 kts 167°
2026-05-04 08:37 37.95113 120.44949 16356 ft 414 kts 167°
2026-05-04 08:37 37.92370 120.45836 16108 ft 411 kts 167°
2026-05-04 08:38 37.89596 120.46733 15855 ft 407 kts 167°
2026-05-04 08:38 37.86889 120.47608 15607 ft 405 kts 167°
2026-05-04 08:38 37.84174 120.48484 15357 ft 402 kts 167°
2026-05-04 08:40 37.65528 120.53896 13602 ft 385 kts 181°
2026-05-04 08:40 37.62889 120.53492 13355 ft 384 kts 194°
2026-05-04 08:40 37.60265 120.52539 13122 ft 404 kts 198°
2026-05-04 08:41 37.57560 120.51479 12865 ft 411 kts 198°
2026-05-04 08:41 37.54853 120.50446 12613 ft 408 kts 197°
2026-05-04 08:41 37.52137 120.49414 12359 ft 405 kts 197°
2026-05-04 08:41 37.49455 120.48395 12108 ft 403 kts 197°
2026-05-04 08:42 37.46773 120.47378 11869 ft 401 kts 197°
2026-05-04 08:42 37.44131 120.46377 11816 ft 398 kts 197°
2026-05-04 08:42 37.41488 120.45375 11823 ft 400 kts 197°
2026-05-04 08:42 37.38804 120.44360 11820 ft 401 kts 197°
2026-05-04 08:43 37.36147 120.43355 11817 ft 401 kts 197°
2026-05-04 08:43 37.33479 120.42346 11819 ft 401 kts 197°
2026-05-04 08:43 37.30819 120.41342 11820 ft 401 kts 197°
2026-05-04 08:43 37.28156 120.40337 11819 ft 401 kts 197°
2026-05-04 08:44 37.25523 120.39344 11819 ft 401 kts 197°
2026-05-04 08:44 37.22853 120.38339 11820 ft 401 kts 197°
2026-05-04 08:46 37.04210 120.31335 11820 ft 398 kts 197°
2026-05-04 08:46 37.01578 120.30350 11820 ft 397 kts 197°
2026-05-04 08:46 36.98954 120.29368 11820 ft 395 kts 198°
2026-05-04 08:46 36.96417 120.28096 11808 ft 392 kts 211°
2026-05-04 08:47 36.94314 120.25934 11821 ft 390 kts 231°
2026-05-04 08:47 36.92984 120.23037 11830 ft 389 kts 250°
2026-05-04 08:47 36.92156 120.19796 11827 ft 390 kts 253°
2026-05-04 08:47 36.91363 120.16595 11808 ft 383 kts 252°
2026-05-04 08:48 36.90578 120.13501 11805 ft 361 kts 252°
2026-05-04 08:48 36.89846 120.10617 11816 ft 337 kts 252°
2026-05-04 08:48 36.89110 120.07929 11701 ft 320 kts 245°
2026-05-04 08:48 36.87884 120.05708 11387 ft 312 kts 223°
2026-05-04 08:49 36.86041 120.04353 11015 ft 307 kts 198°
2026-05-04 08:50 36.74160 120.07629 8775 ft 286 kts 164°
2026-05-04 08:50 36.72267 120.08382 8396 ft 283 kts 164°
2026-05-04 08:51 36.70382 120.09129 7901 ft 285 kts 164°
2026-05-04 08:51 36.68508 120.09873 7407 ft 286 kts 164°
2026-05-04 08:51 36.66627 120.10609 6912 ft 286 kts 167°
2026-05-04 08:51 36.64663 120.10817 6397 ft 284 kts 190°
2026-05-04 08:52 36.62884 120.09852 5897 ft 282 kts 219°
2026-05-04 08:52 36.61720 120.07970 5434 ft 272 kts 244°
2026-05-04 08:52 36.61145 120.05898 4955 ft 238 kts 251°
2026-05-04 08:52 36.60672 120.04046 4432 ft 212 kts 249°
2026-05-04 08:53 36.60236 120.02379 3952 ft 193 kts 249°
2026-05-04 08:54 36.55004 120.00095 3763 ft 150 kts 163°
2026-05-04 08:55 36.54025 120.00496 3530 ft 144 kts 164°
2026-05-04 08:55 36.53082 120.00873 3382 ft 143 kts 164°
2026-05-04 08:55 36.52127 120.01252 3176 ft 143 kts 164°
2026-05-04 08:55 36.51193 120.01621 2978 ft 142 kts 164°
2026-05-04 08:57 36.44717 120.04173 1628 ft 137 kts 164°
2026-05-04 09:01 36.35400 120.07837 44 ft 4 kts 162°
2026-05-04 09:01 36.35368 120.07850 43 ft 4 kts 162°
2026-05-04 09:01 36.35336 120.07862 42 ft 4 kts 163°
2026-05-04 09:01 36.35306 120.07875 42 ft 4 kts 155°
2026-05-04 09:02 36.35278 120.07893 41 ft 4 kts 151°
2026-05-04 09:02 36.35255 120.07916 41 ft 4 kts 138°
2026-05-04 09:02 36.35231 120.07941 41 ft 4 kts 139°
2026-05-04 09:02 36.35208 120.07967 40 ft 4 kts 139°
2026-05-04 09:03 36.35184 120.07993 40 ft 4 kts 138°
2026-05-04 09:03 36.35161 120.08018 40 ft 4 kts 139°
2026-05-04 09:03 36.35138 120.08044 39 ft 4 kts 130°
2026-05-04 09:03 36.35136 120.08070 39 ft 3 kts 61°
2026-05-04 09:04 36.35148 120.08097 39 ft 3 kts 67°
2026-05-04 09:04 36.35158 120.08128 40 ft 3 kts 67°
2026-05-04 09:04 36.35163 120.08144 40 ft 0 kts 67°